Date String (YYYY-MM-DD hh:mm:ss) UTC,Instrument flags,absolute air pressure of the measurement (hPa),sample flow rate (lpm),inlet stack bypass flow (lpm),air temperature of the measurement (°C),ambient temperature measured by the external sensor (°C),aerosol sample conditioner tube jacket temperature (°C),OPC LED temperature (°C),internal box temperature (°C),relative humidity of the measurement (%),span deviation,mass concentration of particles derived from Lorenz-Mie calculation of OPC scattering (μg/m³),mass concentration of particles derived from Lorenz-Mie calculation of OPC scattering (μg/m³),mass concentration of particles derived from Lorenz-Mie calculation of OPC scattering (μg/m³)
DateTimeUTC,F1_M11,P_M11,Q1_M11,Q2_M11,T1_M11,T2_M11,T3_M11,T4_M11,T5_M11,U1_M11,ZSPAN_M11,X2_M11,X0_M11,X1_M11
2024-04-12 01:00:00,SystemResetWarning,0829.2,5.00,000.00,025.9,025.3,000.0,034.2,027.9,012.1,0000.0,0006.00,0024.00,0003.73
2024-04-12 01:01:00,SystemResetWarning,0829.2,5.00,000.00,026.0,025.4,000.0,034.2,027.9,012.2,0000.0,0006.01,0024.61,0003.71
2024-04-12 01:02:00,SystemResetWarning,0829.2,5.00,000.00,026.0,025.5,000.0,034.2,028.0,012.1,0000.0,0006.01,0023.59,0003.70
2024-04-12 01:03:00,SystemResetWarning,0829.2,5.00,000.00,026.1,025.6,000.0,034.3,028.0,012.1,0000.0,0006.03,0022.55,0003.69
2024-04-12 01:04:00,SystemResetWarning,0829.2,5.00,000.00,026.1,025.6,000.0,034.3,028.1,012.2,0000.0,0006.09,0024.27,0003.68
2024-04-12 01:05:00,SystemResetWarning,0829.2,5.00,000.00,026.2,025.7,000.0,034.3,028.1,012.2,0000.0,0006.11,0024.99,0003.67
2024-04-12 01:06:00,SystemResetWarning,0829.2,5.00,000.00,026.2,025.7,000.0,034.4,028.2,012.2,0000.0,0006.14,0025.35,0003.66
2024-04-12 01:07:00,SystemResetWarning,0829.2,4.99,000.00,026.3,025.8,000.0,034.4,028.2,012.1,0000.0,0006.12,0025.18,0003.63
2024-04-12 01:08:00,SystemResetWarning,0829.2,5.01,000.00,026.3,025.8,000.0,034.5,028.2,012.1,0000.0,0006.22,0024.73,0003.61
2024-04-12 01:09:00,SystemResetWarning,0829.3,5.00,000.00,026.3,025.9,000.0,034.5,028.3,012.1,0000.0,0006.20,0024.31,0003.58
2024-04-12 01:10:00,SystemResetWarning,0829.3,5.00,000.00,026.4,025.9,000.0,034.5,028.3,012.0,0000.0,0006.21,0025.14,0003.58
2024-04-12 01:11:00,SystemResetWarning,0829.2,4.98,000.00,026.2,024.1,000.0,034.6,027.3,012.1,0000.0,0006.21,0024.83,0003.57
2024-04-12 01:12:00,SystemResetWarning,0829.2,5.01,000.00,025.7,022.4,000.0,034.6,026.3,012.4,0000.0,0006.19,0025.32,0003.56
2024-04-12 01:13:00,SystemResetWarning,0829.2,5.01,000.00,025.5,022.5,000.0,034.5,026.2,012.5,0000.0,0006.15,0025.92,0003.54
2024-04-12 01:14:00,SystemResetWarning,0829.2,4.99,000.00,025.4,022.8,000.0,034.3,026.4,012.5,0000.0,0006.09,0026.91,0003.52
2024-04-12 01:15:00,SystemResetWarning,0829.2,4.99,000.00,025.4,023.2,000.0,034.2,026.8,012.3,0000.0,0005.95,0024.75,0003.50
2024-04-12 01:16:00,SystemResetWarning,0829.3,5.02,000.00,025.4,023.6,000.0,034.2,027.0,012.5,0000.0,0005.89,0023.51,0003.47
2024-04-12 01:17:00,SystemResetWarning,0829.3,5.00,000.00,025.5,023.9,000.0,034.1,027.2,012.4,0000.0,0005.82,0023.56,0003.45
2024-04-12 01:18:00,SystemResetWarning,0829.3,4.99,000.00,025.5,024.2,000.0,034.1,027.3,012.5,0000.0,0005.81,0023.48,0003.44
2024-04-12 01:19:00,SystemResetWarning,0829.3,5.00,000.00,025.6,024.5,000.0,034.1,027.4,012.5,0000.0,0005.74,0023.33,0003.45
2024-04-12 01:20:00,SystemResetWarning,0829.4,5.00,000.00,025.6,024.6,000.0,034.1,027.5,012.4,0000.0,0005.77,0024.92,0003.43
2024-04-12 01:21:00,SystemResetWarning,0829.4,4.99,000.00,025.7,024.8,000.0,034.1,027.5,012.4,0000.0,0005.82,0024.51,0003.41
2024-04-12 01:22:00,SystemResetWarning,0829.4,4.99,000.00,025.7,025.0,000.0,034.1,027.6,012.5,0000.0,0005.89,0023.92,0003.41
2024-04-12 01:23:00,SystemResetWarning,0829.3,5.00,000.00,025.8,025.1,000.0,034.1,027.7,012.3,0000.0,0005.93,0023.82,0003.40
2024-04-12 01:24:00,SystemResetWarning,0829.4,5.00,000.00,025.8,025.2,000.0,034.1,027.8,012.2,0000.0,0006.03,0024.03,0003.40
2024-04-12 01:25:00,SystemResetWarning,0829.4,5.00,000.00,025.9,025.3,000.0,034.1,027.8,012.2,0000.0,0006.07,0023.56,0003.40
2024-04-12 01:26:00,SystemResetWarning,0829.4,5.01,000.00,025.9,025.4,000.0,034.2,027.9,012.0,0000.0,0006.11,0026.08,0003.39
2024-04-12 01:27:00,SystemResetWarning,0829.3,5.01,000.00,026.0,025.5,000.0,034.2,027.9,011.9,0000.0,0006.23,0027.05,0003.38
2024-04-12 01:28:00,SystemResetWarning,0829.4,5.00,000.00,026.0,025.5,000.0,034.2,028.0,011.9,0000.0,0006.29,0026.92,0003.38
2024-04-12 01:29:00,SystemResetWarning,0829.3,4.99,000.00,026.1,025.6,000.0,034.3,028.0,011.9,0000.0,0006.28,0026.84,0003.37
2024-04-12 01:30:00,SystemResetWarning,0829.3,5.00,000.00,026.1,025.6,000.0,034.3,028.1,011.9,0000.0,0006.28,0026.36,0003.35
2024-04-12 01:31:00,SystemResetWarning,0829.3,5.00,000.00,026.2,025.7,000.0,034.3,028.1,011.8,0000.0,0006.33,0025.72,0003.36
2024-04-12 01:32:00,SystemResetWarning,0829.3,5.00,000.00,026.2,025.7,000.0,034.4,028.1,011.7,0000.0,0006.34,0025.47,0003.36
2024-04-12 01:33:00,SystemResetWarning,0829.4,5.00,000.00,026.2,025.8,000.0,034.4,028.2,011.7,0000.0,0006.29,0025.81,0003.35
2024-04-12 01:34:00,SystemResetWarning,0829.4,5.00,000.00,026.3,025.8,000.0,034.4,028.2,011.7,0000.0,0006.25,0025.27,0003.34
2024-04-12 01:35:00,SystemResetWarning,0829.3,5.00,000.00,026.3,025.8,000.0,034.5,028.3,011.8,0000.0,0006.15,0024.82,0003.32
2024-04-12 01:36:00,SystemResetWarning,0829.4,5.00,000.00,026.3,025.9,000.0,034.5,028.3,011.7,0000.0,0006.13,0025.19,0003.31
2024-04-12 01:37:00,SystemResetWarning,0829.4,5.00,000.00,026.4,025.9,000.0,034.5,028.3,011.7,0000.0,0006.09,0023.55,0003.29
2024-04-12 01:38:00,SystemResetWarning,0829.4,4.98,000.00,026.3,024.7,000.0,034.6,027.6,011.7,0000.0,0006.01,0023.20,0003.29
2024-04-12 01:39:00,SystemResetWarning,0829.3,5.00,000.00,025.8,022.6,000.0,034.6,026.4,011.8,0000.0,0005.98,0023.87,0003.27
2024-04-12 01:40:00,SystemResetWarning,0829.3,5.01,000.00,025.5,022.3,000.0,034.5,026.1,012.0,0000.0,0006.01,0024.07,0003.26
2024-04-12 01:41:00,SystemResetWarning,0829.3,5.00,000.00,025.3,022.7,000.0,034.4,026.4,012.1,0000.0,0005.98,0024.55,0003.24
2024-04-12 01:42:00,SystemResetWarning,0829.3,4.99,000.00,025.4,023.1,000.0,034.3,026.7,012.1,0000.0,0005.90,0023.99,0003.24
2024-04-12 01:43:00,SystemResetWarning,0829.3,5.00,000.00,025.4,023.4,000.0,034.2,026.9,012.1,0000.0,0005.85,0023.64,0003.22
2024-04-12 01:44:00,SystemResetWarning,0829.4,4.99,000.00,025.4,023.8,000.0,034.1,027.1,012.1,0000.0,0005.86,0023.62,0003.21
2024-04-12 01:45:00,SystemResetWarning,0829.4,5.00,000.00,025.5,024.1,000.0,034.1,027.2,012.0,0000.0,0005.88,0023.43,0003.22
2024-04-12 01:46:00,SystemResetWarning,0829.5,5.00,000.00,025.5,024.3,000.0,034.1,027.3,012.0,0000.0,0005.84,0023.07,0003.21
2024-04-12 01:47:00,SystemResetWarning,0829.5,5.00,000.00,025.5,024.5,000.0,034.1,027.4,012.0,0000.0,0005.82,0022.43,0003.21
2024-04-12 01:48:00,SystemResetWarning,0829.6,4.99,000.00,025.6,024.7,000.0,034.1,027.5,011.9,0000.0,0005.86,0022.64,0003.21
2024-04-12 01:49:00,SystemResetWarning,0829.6,5.00,000.00,025.6,024.9,000.0,034.1,027.6,011.9,0000.0,0005.85,0022.71,0003.21
2024-04-12 01:50:00,SystemResetWarning,0829.6,5.00,000.00,025.7,025.0,000.0,034.1,027.6,011.9,0000.0,0005.86,0021.44,0003.21
2024-04-12 01:51:00,SystemResetWarning,0829.7,5.00,000.00,025.8,025.1,000.0,034.1,027.7,011.9,0000.0,0005.86,0020.51,0003.21
2024-04-12 01:52:00,SystemResetWarning,0829.6,5.00,000.00,025.8,025.2,000.0,034.1,027.7,011.9,0000.0,0005.92,0020.95,0003.20
2024-04-12 01:53:00,SystemResetWarning,0829.7,5.00,000.00,025.8,025.3,000.0,034.1,027.8,011.9,0000.0,0005.90,0021.22,0003.18
2024-04-12 01:54:00,SystemResetWarning,0829.6,5.00,000.00,025.9,025.4,000.0,034.2,027.8,011.8,0000.0,0005.91,0022.73,0003.16
2024-04-12 01:55:00,SystemResetWarning,0829.6,5.00,000.00,025.9,025.4,000.0,034.2,027.9,011.8,0000.0,0005.90,0022.75,0003.15
2024-04-12 01:56:00,SystemResetWarning,0829.7,5.00,000.00,026.0,025.5,000.0,034.2,027.9,011.8,0000.0,0005.87,0023.04,0003.14
2024-04-12 01:57:00,SystemResetWarning,0829.7,5.00,000.00,026.0,025.5,000.0,034.3,028.0,011.8,0000.0,0005.89,0024.43,0003.13
2024-04-12 01:58:00,SystemResetWarning,0829.7,5.01,000.00,026.1,025.6,000.0,034.3,028.0,011.8,0000.0,0006.00,0025.80,0003.14
2024-04-12 01:59:00,SystemResetWarning,0829.7,5.00,000.00,026.1,025.6,000.0,034.3,028.1,011.8,0000.0,0006.01,0025.08,0003.13
